JTC751 KBED-KPIT

Flight info

Callsign JTC751
Flight time 1h 10m
Altitude 43000
Route REVSS CTR HNK KONJE SLT HAYNZ7
Aircraft C750/M-SBDE3FGHRWXY/S

Departure

Time 2026-05-05 00:20
Airport Laurence G Hanscom Field (KBED)

Arrival

Time 2026-05-05 01:30
Airport Pittsburgh International Airport (KPIT)
Time Latitude Longitude Altitude Speed Heading
2026-05-05 00:00 42.46448 -71.29120 135 ft 0 kts
2026-05-05 00:13 42.46449 -71.29120 107 ft 1 kts
2026-05-05 00:14 42.46451 -71.29126 107 ft 1 kts 288°
2026-05-05 00:14 42.46445 -71.29128 135 ft 2 kts 195°
2026-05-05 00:14 42.46431 -71.29140 135 ft 2 kts 226°
2026-05-05 00:14 42.46424 -71.29157 135 ft 2 kts 245°
2026-05-05 00:15 42.46419 -71.29175 135 ft 4 kts 252°
2026-05-05 00:15 42.46441 -71.29213 136 ft 6 kts 358°
2026-05-05 00:15 42.46495 -71.29174 136 ft 13 kts 36°
2026-05-05 00:15 42.46581 -71.29085 137 ft 15 kts 37°
2026-05-05 00:16 42.46660 -71.29005 137 ft 14 kts 38°
2026-05-05 00:16 42.46736 -71.28927 136 ft 13 kts 36°
2026-05-05 00:16 42.46808 -71.28853 136 ft 13 kts 39°
2026-05-05 00:16 42.46845 -71.28750 135 ft 12 kts 92°
2026-05-05 00:17 42.46838 -71.28641 135 ft 11 kts 92°
2026-05-05 00:17 42.46861 -71.28550 135 ft 10 kts 54°
2026-05-05 00:17 42.46916 -71.28483 136 ft 13 kts 37°
2026-05-05 00:17 42.47006 -71.28395 134 ft 19 kts 25°
2026-05-05 00:18 42.47144 -71.28412 133 ft 21 kts 340°
2026-05-05 00:18 42.47271 -71.28466 134 ft 17 kts 342°
2026-05-05 00:18 42.47342 -71.28499 133 ft 7 kts 341°
2026-05-05 00:18 42.47358 -71.28506 133 ft 4 kts 341°
2026-05-05 00:19 42.47406 -71.28530 132 ft 11 kts 339°
2026-05-05 00:19 42.47433 -71.28571 131 ft 7 kts 221°
2026-05-05 00:19 42.47286 -71.28723 128 ft 71 kts 217°
2026-05-05 00:19 42.46670 -71.29350 359 ft 122 kts 217°
2026-05-05 00:20 42.46035 -71.30214 791 ft 146 kts 238°
2026-05-05 00:20 42.45794 -71.31704 1180 ft 173 kts 257°
2026-05-05 00:20 42.45619 -71.33407 1654 ft 196 kts 257°
2026-05-05 00:20 42.45398 -71.35349 2164 ft 221 kts 257°
2026-05-05 00:21 42.45125 -71.37478 2984 ft 233 kts 257°
2026-05-05 00:21 42.44807 -71.39639 4055 ft 235 kts 257°
2026-05-05 00:21 42.44347 -71.41781 5063 ft 239 kts 251°
2026-05-05 00:21 42.43730 -71.43897 6049 ft 244 kts 251°
2026-05-05 00:22 42.43168 -71.46074 7008 ft 247 kts 255°
2026-05-05 00:22 42.42642 -71.48312 7982 ft 253 kts 255°
2026-05-05 00:22 42.42087 -71.50603 8986 ft 259 kts 255°
2026-05-05 00:22 42.41505 -71.52941 9926 ft 265 kts 255°
2026-05-05 00:23 42.40908 -71.55357 10486 ft 281 kts 254°
2026-05-05 00:23 42.40262 -71.57992 10643 ft 308 kts 254°
2026-05-05 00:23 42.39556 -71.60855 10865 ft 328 kts 253°
2026-05-05 00:23 42.38827 -71.63779 11672 ft 328 kts 253°
2026-05-05 00:24 42.38098 -71.66721 12388 ft 332 kts 253°
2026-05-05 00:24 42.37363 -71.69697 13125 ft 335 kts 253°
2026-05-05 00:24 42.36618 -71.72701 13799 ft 339 kts 253°
2026-05-05 00:24 42.35862 -71.75738 14427 ft 342 kts 253°
2026-05-05 00:25 42.35357 -71.77762 14797 ft 345 kts 253°
2026-05-05 00:25 42.34643 -71.80871 15354 ft 348 kts 258°
2026-05-05 00:25 42.34410 -71.84126 15958 ft 349 kts 268°
2026-05-05 00:25 42.34288 -71.87417 16625 ft 352 kts 267°
2026-05-05 00:26 42.34130 -71.90737 17273 ft 356 kts 266°
2026-05-05 00:26 42.33973 -71.94090 17946 ft 359 kts 267°
2026-05-05 00:26 42.33830 -71.97472 18569 ft 362 kts 267°
2026-05-05 00:26 42.33686 -72.00882 19192 ft 365 kts 267°
2026-05-05 00:27 42.33531 -72.04323 19843 ft 368 kts 267°
2026-05-05 00:27 42.33374 -72.07787 20487 ft 371 kts 268°
2026-05-05 00:27 42.33217 -72.11284 21121 ft 374 kts 268°
2026-05-05 00:27 42.33059 -72.14803 21764 ft 377 kts 268°
2026-05-05 00:28 42.32897 -72.18355 22376 ft 380 kts 268°
2026-05-05 00:28 42.32731 -72.21935 22945 ft 383 kts 268°
2026-05-05 00:28 42.32565 -72.25539 23523 ft 386 kts 268°
2026-05-05 00:28 42.32396 -72.29174 24017 ft 389 kts 269°
2026-05-05 00:29 42.32224 -72.32843 24520 ft 392 kts 269°
2026-05-05 00:29 42.32049 -72.36531 25033 ft 395 kts 269°
2026-05-05 00:29 42.31873 -72.40250 25545 ft 398 kts 269°
2026-05-05 00:29 42.31694 -72.43995 26063 ft 401 kts 269°
2026-05-05 00:30 42.31512 -72.47767 26593 ft 404 kts 269°
2026-05-05 00:30 42.31327 -72.51573 27112 ft 407 kts 269°
2026-05-05 00:30 42.31140 -72.55385 27622 ft 397 kts 269°
2026-05-05 00:30 42.30956 -72.59070 27817 ft 397 kts 269°
2026-05-05 00:31 42.30774 -72.62857 27818 ft 412 kts 269°
2026-05-05 00:31 42.30582 -72.66795 27824 ft 427 kts 269°
2026-05-05 00:31 42.30374 -72.70871 27831 ft 440 kts 269°
2026-05-05 00:31 42.30159 -72.75058 27840 ft 453 kts 269°
2026-05-05 00:32 42.29945 -72.79304 27844 ft 464 kts 269°
2026-05-05 00:32 42.29720 -72.83710 27840 ft 474 kts 269°
2026-05-05 00:32 42.29487 -72.88182 27836 ft 479 kts 268°
2026-05-05 00:32 42.29249 -72.92695 27839 ft 482 kts 268°
2026-05-05 00:33 42.28951 -72.97162 27809 ft 465 kts 266°
2026-05-05 00:33 42.28567 -73.01444 27812 ft 458 kts 265°
2026-05-05 00:33 42.28194 -73.05716 27807 ft 458 kts 266°
2026-05-05 00:33 42.27832 -73.09992 27804 ft 458 kts 266°
2026-05-05 00:34 42.27467 -73.14209 27822 ft 458 kts 266°
2026-05-05 00:34 42.27087 -73.18477 27824 ft 458 kts 265°
2026-05-05 00:34 42.26708 -73.22746 27829 ft 458 kts 266°
2026-05-05 00:34 42.26332 -73.27018 27830 ft 458 kts 266°
2026-05-05 00:35 42.25956 -73.31278 27838 ft 457 kts 265°
2026-05-05 00:35 42.25574 -73.35531 27838 ft 457 kts 265°
2026-05-05 00:35 42.25192 -73.39783 27828 ft 456 kts 265°
2026-05-05 00:35 42.24810 -73.44034 27828 ft 457 kts 265°
2026-05-05 00:36 42.24426 -73.48297 27824 ft 457 kts 265°
2026-05-05 00:36 42.24038 -73.52552 27820 ft 456 kts 265°
2026-05-05 00:36 42.23650 -73.56801 27802 ft 457 kts 265°
2026-05-05 00:36 42.23262 -73.61062 27815 ft 458 kts 265°
2026-05-05 00:37 42.22870 -73.65328 27808 ft 457 kts 265°
2026-05-05 00:37 42.22476 -73.69583 27811 ft 457 kts 265°
2026-05-05 00:37 42.22081 -73.73841 27810 ft 457 kts 265°
2026-05-05 00:37 42.21687 -73.78090 27804 ft 457 kts 265°
2026-05-05 00:38 42.21294 -73.82288 27813 ft 457 kts 265°
2026-05-05 00:38 42.20895 -73.86541 27812 ft 457 kts 265°
2026-05-05 00:38 42.20494 -73.90791 27814 ft 457 kts 265°
2026-05-05 00:38 42.20092 -73.95047 27821 ft 457 kts 265°
2026-05-05 00:39 42.19689 -73.99295 27823 ft 457 kts 265°
2026-05-05 00:39 42.19282 -74.03556 27828 ft 460 kts 264°
2026-05-05 00:39 42.18874 -74.07807 27832 ft 455 kts 265°
2026-05-05 00:39 42.18467 -74.12049 27839 ft 457 kts 265°
2026-05-05 00:40 42.18058 -74.16298 27834 ft 457 kts 265°
2026-05-05 00:40 42.17646 -74.20548 27842 ft 457 kts 265°
2026-05-05 00:40 42.17231 -74.24800 27844 ft 457 kts 265°
2026-05-05 00:40 42.16816 -74.29052 27842 ft 457 kts 265°
2026-05-05 00:41 42.16400 -74.33303 27846 ft 457 kts 265°
2026-05-05 00:41 42.15982 -74.37546 27854 ft 457 kts 265°
2026-05-05 00:41 42.15562 -74.41798 27844 ft 459 kts 265°
2026-05-05 00:41 42.15141 -74.46055 27861 ft 459 kts 264°
2026-05-05 00:42 42.14716 -74.50319 27857 ft 459 kts 264°
2026-05-05 00:42 42.14289 -74.54581 27858 ft 459 kts 264°
2026-05-05 00:42 42.13861 -74.58842 27859 ft 459 kts 264°
2026-05-05 00:42 42.13433 -74.63100 27860 ft 459 kts 264°
2026-05-05 00:43 42.13003 -74.67360 27857 ft 459 kts 264°
2026-05-05 00:43 42.12570 -74.71617 27857 ft 459 kts 264°
2026-05-05 00:43 42.12136 -74.75879 27857 ft 460 kts 264°
2026-05-05 00:43 42.11707 -74.80073 27855 ft 458 kts 264°
2026-05-05 00:44 42.11265 -74.84382 27851 ft 458 kts 264°
2026-05-05 00:44 42.10832 -74.88582 27853 ft 459 kts 264°
2026-05-05 00:44 42.10392 -74.92834 27857 ft 459 kts 264°
2026-05-05 00:44 42.09950 -74.97102 27859 ft 459 kts 264°
2026-05-05 00:45 42.09506 -75.01364 27859 ft 459 kts 264°
2026-05-05 00:45 42.09061 -75.05622 27864 ft 458 kts 264°
2026-05-05 00:45 42.08614 -75.09869 27851 ft 458 kts 264°
2026-05-05 00:45 42.08168 -75.14106 27853 ft 458 kts 264°
2026-05-05 00:46 42.07721 -75.18348 27851 ft 459 kts 264°
2026-05-05 00:46 42.07270 -75.22594 27843 ft 459 kts 264°
2026-05-05 00:46 42.06818 -75.26842 27843 ft 458 kts 264°
2026-05-05 00:46 42.06362 -75.31105 27846 ft 461 kts 264°
2026-05-05 00:47 42.05831 -75.35367 27841 ft 461 kts 262°
2026-05-05 00:47 42.05283 -75.39623 27839 ft 461 kts 262°
2026-05-05 00:47 42.04743 -75.43876 27843 ft 460 kts 262°
2026-05-05 00:47 42.04203 -75.48118 27843 ft 459 kts 262°
2026-05-05 00:48 42.03658 -75.52352 27831 ft 460 kts 262°
2026-05-05 00:48 42.03114 -75.56544 27831 ft 460 kts 262°
2026-05-05 00:48 42.02567 -75.60780 27831 ft 460 kts 262°
2026-05-05 00:48 42.02019 -75.65015 27821 ft 459 kts 262°
2026-05-05 00:49 42.01468 -75.69247 27822 ft 460 kts 262°
2026-05-05 00:49 42.00914 -75.73485 27823 ft 460 kts 262°
2026-05-05 00:49 42.00359 -75.77718 27823 ft 460 kts 262°
2026-05-05 00:49 41.99804 -75.81949 27809 ft 460 kts 262°
2026-05-05 00:50 41.99247 -75.86184 27812 ft 460 kts 262°
2026-05-05 00:50 41.98687 -75.90419 27813 ft 460 kts 262°
2026-05-05 00:50 41.98125 -75.94653 27804 ft 460 kts 262°
2026-05-05 00:50 41.97570 -75.98834 27803 ft 460 kts 262°
2026-05-05 00:51 41.97006 -76.03067 27804 ft 460 kts 262°
2026-05-05 00:51 41.96441 -76.07293 27798 ft 459 kts 262°
2026-05-05 00:51 41.95874 -76.11523 27798 ft 459 kts 262°
2026-05-05 00:51 41.95305 -76.15750 27797 ft 460 kts 261°
2026-05-05 00:52 41.94735 -76.19977 27796 ft 460 kts 261°
2026-05-05 00:52 41.94163 -76.24211 27793 ft 460 kts 261°
2026-05-05 00:52 41.93588 -76.28452 27793 ft 461 kts 261°
2026-05-05 00:52 41.93013 -76.32680 27791 ft 461 kts 261°
2026-05-05 00:53 41.92435 -76.36906 27785 ft 461 kts 261°
2026-05-05 00:53 41.91857 -76.41136 27787 ft 461 kts 261°
2026-05-05 00:53 41.91277 -76.45372 27788 ft 461 kts 261°
2026-05-05 00:53 41.90703 -76.49541 27787 ft 460 kts 261°
2026-05-05 00:54 41.90120 -76.53759 27782 ft 458 kts 261°
2026-05-05 00:54 41.89556 -76.57824 27613 ft 426 kts 261°
2026-05-05 00:54 41.89022 -76.61655 27369 ft 416 kts 261°
2026-05-05 00:54 41.88497 -76.65462 27108 ft 413 kts 261°
2026-05-05 00:55 41.87972 -76.69244 26867 ft 411 kts 261°
2026-05-05 00:55 41.87443 -76.73006 26632 ft 409 kts 261°
2026-05-05 00:55 41.86917 -76.76752 26402 ft 408 kts 261°
2026-05-05 00:55 41.86395 -76.80482 26160 ft 407 kts 261°
2026-05-05 00:56 41.85872 -76.84201 25937 ft 405 kts 261°
2026-05-05 00:56 41.85336 -76.88006 25774 ft 423 kts 261°
2026-05-05 00:56 41.84779 -76.91945 25780 ft 435 kts 261°
2026-05-05 00:56 41.84207 -76.95965 25776 ft 440 kts 261°
2026-05-05 00:57 41.83632 -77.00003 25782 ft 443 kts 261°
2026-05-05 00:57 41.83052 -77.04067 25781 ft 443 kts 261°
2026-05-05 00:57 41.82468 -77.08081 25780 ft 444 kts 260°
2026-05-05 00:57 41.81581 -77.12066 25770 ft 447 kts 252°
2026-05-05 00:58 41.80323 -77.15889 25778 ft 449 kts 247°
2026-05-05 00:58 41.78972 -77.19667 25782 ft 449 kts 247°
2026-05-05 00:58 41.77643 -77.23453 25801 ft 449 kts 247°
2026-05-05 00:58 41.76315 -77.27239 25799 ft 449 kts 247°
2026-05-05 00:59 41.74974 -77.31008 25801 ft 449 kts 247°
2026-05-05 00:59 41.73627 -77.34779 25809 ft 449 kts 246°
2026-05-05 00:59 41.72287 -77.38552 25816 ft 448 kts 247°
2026-05-05 00:59 41.70950 -77.42318 25794 ft 450 kts 247°
2026-05-05 01:00 41.69602 -77.46103 25806 ft 450 kts 246°
2026-05-05 01:00 41.68249 -77.49887 25802 ft 451 kts 246°
2026-05-05 01:00 41.66894 -77.53673 25810 ft 452 kts 246°
2026-05-05 01:00 41.65540 -77.57460 25808 ft 451 kts 246°
2026-05-05 01:01 41.64183 -77.61249 25812 ft 452 kts 246°
2026-05-05 01:01 41.62821 -77.65040 25811 ft 452 kts 246°
2026-05-05 01:01 41.61461 -77.68824 25812 ft 452 kts 246°
2026-05-05 01:01 41.60101 -77.72609 25813 ft 452 kts 246°
2026-05-05 01:02 41.58758 -77.76338 25813 ft 452 kts 246°
2026-05-05 01:02 41.57392 -77.80121 25815 ft 452 kts 246°
2026-05-05 01:02 41.56028 -77.83895 25817 ft 452 kts 246°
2026-05-05 01:02 41.54660 -77.87677 25816 ft 454 kts 246°
2026-05-05 01:03 41.53286 -77.91470 25815 ft 454 kts 246°
2026-05-05 01:03 41.51911 -77.95261 25816 ft 454 kts 246°
2026-05-05 01:03 41.50614 -77.99080 25817 ft 451 kts 249°
2026-05-05 01:03 41.49415 -78.02950 25817 ft 451 kts 249°
2026-05-05 01:04 41.48206 -78.06809 25819 ft 450 kts 249°
2026-05-05 01:04 41.45761 -78.14514 25822 ft 451 kts 249°
2026-05-05 01:04 41.44546 -78.18374 25818 ft 451 kts 249°
2026-05-05 01:05 41.43345 -78.22183 25818 ft 451 kts 249°
2026-05-05 01:05 41.42124 -78.26032 25820 ft 450 kts 249°
2026-05-05 01:05 41.40900 -78.29877 25819 ft 451 kts 249°
2026-05-05 01:05 41.39676 -78.33729 25819 ft 451 kts 249°
2026-05-05 01:06 41.38461 -78.37553 25728 ft 437 kts 249°
2026-05-05 01:06 41.37311 -78.41149 25349 ft 411 kts 249°
2026-05-05 01:06 41.36196 -78.44646 24913 ft 409 kts 249°
2026-05-05 01:06 41.35090 -78.48117 24427 ft 405 kts 249°
2026-05-05 01:07 41.33990 -78.51556 23948 ft 403 kts 248°
2026-05-05 01:07 41.32895 -78.54972 23483 ft 400 kts 248°
2026-05-05 01:07 41.31808 -78.58357 22961 ft 396 kts 248°
2026-05-05 01:07 41.30744 -78.61670 22624 ft 394 kts 248°
2026-05-05 01:08 41.29658 -78.65052 22276 ft 391 kts 248°
2026-05-05 01:08 41.28590 -78.68370 21944 ft 389 kts 248°
2026-05-05 01:08 41.27541 -78.71622 21591 ft 386 kts 248°
2026-05-05 01:08 41.26484 -78.74896 21251 ft 384 kts 248°
2026-05-05 01:09 41.25435 -78.78144 20920 ft 381 kts 248°
2026-05-05 01:09 41.24391 -78.81372 20588 ft 379 kts 248°
2026-05-05 01:09 41.23352 -78.84581 20255 ft 377 kts 248°
2026-05-05 01:09 41.22314 -78.87780 19922 ft 376 kts 248°
2026-05-05 01:10 41.21283 -78.90959 19595 ft 374 kts 247°
2026-05-05 01:10 41.20257 -78.94117 19268 ft 371 kts 247°
2026-05-05 01:10 41.19234 -78.97258 18943 ft 369 kts 247°
2026-05-05 01:10 41.18218 -79.00377 18617 ft 367 kts 247°
2026-05-05 01:11 41.17209 -79.03473 18296 ft 365 kts 247°
2026-05-05 01:11 41.16203 -79.06552 17957 ft 362 kts 247°
2026-05-05 01:11 41.15204 -79.09611 17624 ft 360 kts 247°
2026-05-05 01:11 41.14210 -79.12649 17407 ft 357 kts 248°
2026-05-05 01:12 41.13219 -79.15673 17171 ft 356 kts 248°
2026-05-05 01:12 41.12230 -79.18689 16916 ft 355 kts 248°
2026-05-05 01:12 41.11247 -79.21690 16710 ft 353 kts 248°
2026-05-05 01:12 41.10277 -79.24644 16531 ft 352 kts 248°
2026-05-05 01:13 41.09295 -79.27626 16359 ft 352 kts 248°
2026-05-05 01:13 41.08316 -79.30595 16181 ft 351 kts 248°
2026-05-05 01:13 41.07340 -79.33557 16006 ft 350 kts 248°
2026-05-05 01:13 41.06366 -79.36507 15820 ft 349 kts 248°
2026-05-05 01:14 41.05396 -79.39445 15640 ft 348 kts 248°
2026-05-05 01:14 41.04427 -79.42375 15466 ft 347 kts 248°
2026-05-05 01:14 41.03787 -79.44308 15349 ft 344 kts 248°
2026-05-05 01:14 41.02823 -79.47214 15184 ft 344 kts 248°
2026-05-05 01:15 41.01861 -79.50115 15018 ft 343 kts 248°
2026-05-05 01:15 41.00903 -79.53001 14854 ft 341 kts 248°
2026-05-05 01:15 40.99947 -79.55880 14464 ft 340 kts 248°
2026-05-05 01:15 40.98998 -79.58725 14028 ft 336 kts 248°
2026-05-05 01:16 40.98058 -79.61548 13582 ft 333 kts 248°
2026-05-05 01:16 40.97127 -79.64342 13123 ft 331 kts 248°
2026-05-05 01:16 40.96121 -79.67065 12668 ft 330 kts 242°
2026-05-05 01:16 40.94685 -79.69436 12241 ft 332 kts 229°
2026-05-05 01:17 40.92967 -79.71468 11823 ft 331 kts 226°
2026-05-05 01:17 40.91253 -79.73480 11385 ft 328 kts 226°
2026-05-05 01:17 40.89603 -79.75438 10960 ft 307 kts 227°
2026-05-05 01:17 40.88070 -79.77239 10565 ft 284 kts 227°
2026-05-05 01:18 40.86647 -79.78898 10289 ft 262 kts 227°
2026-05-05 01:18 40.85066 -79.80121 9598 ft 270 kts 210°
2026-05-05 01:18 40.83238 -79.80730 8928 ft 271 kts 199°
2026-05-05 01:18 40.81403 -79.81202 8266 ft 266 kts 199°
2026-05-05 01:19 40.79600 -79.81690 7609 ft 263 kts 199°
2026-05-05 01:19 40.77821 -79.82177 6943 ft 259 kts 199°
2026-05-05 01:19 40.76085 -79.82643 6329 ft 257 kts 198°
2026-05-05 01:19 40.74404 -79.83083 6242 ft 234 kts 198°
2026-05-05 01:20 40.72903 -79.83450 6076 ft 209 kts 198°
2026-05-05 01:20 40.71484 -79.83789 5480 ft 206 kts 198°
2026-05-05 01:20 40.70073 -79.84153 4997 ft 202 kts 198°
2026-05-05 01:20 40.68739 -79.84512 5001 ft 198 kts 199°
2026-05-05 01:21 40.67385 -79.84874 5005 ft 200 kts 199°
2026-05-05 01:21 40.66016 -79.85229 4974 ft 202 kts 198°
2026-05-05 01:21 40.64640 -79.85595 4736 ft 200 kts 198°
2026-05-05 01:21 40.63290 -79.85971 4487 ft 197 kts 198°
2026-05-05 01:22 40.61959 -79.86355 4229 ft 196 kts 199°
2026-05-05 01:22 40.60628 -79.86737 3991 ft 193 kts 199°
2026-05-05 01:22 40.59321 -79.87116 4016 ft 193 kts 199°
2026-05-05 01:22 40.58016 -79.87490 4015 ft 192 kts 198°
2026-05-05 01:23 40.56705 -79.87885 4020 ft 191 kts 198°
2026-05-05 01:23 40.55418 -79.88268 4018 ft 195 kts 200°
2026-05-05 01:23 40.54094 -79.88644 4007 ft 193 kts 198°
2026-05-05 01:23 40.52777 -79.89025 4019 ft 194 kts 198°
2026-05-05 01:24 40.51586 -79.89699 3942 ft 185 kts 223°
2026-05-05 01:24 40.50898 -79.91125 4025 ft 186 kts 241°
2026-05-05 01:24 40.50296 -79.92640 4026 ft 188 kts 241°
2026-05-05 01:24 40.49754 -79.94198 4014 ft 190 kts 249°
2026-05-05 01:25 40.49503 -79.95887 4028 ft 194 kts 258°
2026-05-05 01:25 40.49473 -79.97661 4028 ft 196 kts 264°
2026-05-05 01:25 40.49516 -79.99419 4009 ft 184 kts 264°
2026-05-05 01:25 40.49565 -80.00986 4006 ft 165 kts 264°
2026-05-05 01:26 40.49596 -80.02482 4006 ft 163 kts 264°
2026-05-05 01:26 40.49634 -80.03974 3994 ft 165 kts 265°
2026-05-05 01:26 40.49670 -80.05492 3809 ft 167 kts 264°
2026-05-05 01:26 40.49710 -80.07015 3596 ft 167 kts 264°
2026-05-05 01:27 40.49747 -80.08522 3378 ft 163 kts 264°
2026-05-05 01:27 40.49787 -80.10019 3152 ft 164 kts 264°
2026-05-05 01:27 40.49827 -80.11504 2958 ft 164 kts 264°
2026-05-05 01:27 40.49872 -80.12963 2742 ft 156 kts 261°
2026-05-05 01:28 40.49893 -80.14469 2516 ft 168 kts 264°
2026-05-05 01:28 40.49943 -80.15963 2304 ft 165 kts 265°
2026-05-05 01:28 40.49984 -80.17439 2096 ft 151 kts 264°
2026-05-05 01:28 40.50019 -80.18705 1868 ft 127 kts 263°
2026-05-05 01:29 40.50044 -80.19830 1725 ft 120 kts 267°
2026-05-05 01:29 40.50074 -80.20931 1578 ft 123 kts 268°
2026-05-05 01:29 40.50099 -80.22062 1380 ft 122 kts 267°
2026-05-05 01:29 40.50132 -80.23177 1224 ft 123 kts 268°
2026-05-05 01:30 40.50152 -80.24250 1150 ft 100 kts 271°
2026-05-05 01:30 40.50154 -80.24651 1149 ft 14 kts 221°
2026-05-05 01:30 40.50111 -80.24662 1150 ft 2 kts 162°
2026-05-05 01:30 40.50088 -80.24634 1151 ft 6 kts 124°
2026-05-05 01:31 40.50063 -80.24546 1151 ft 15 kts 101°
2026-05-05 01:31 40.50055 -80.24403 1151 ft 16 kts 92°
2026-05-05 01:31 40.50052 -80.24277 1152 ft 13 kts 89°
2026-05-05 01:31 40.50049 -80.24119 1151 ft 22 kts 92°
2026-05-05 01:32 40.50040 -80.23866 1150 ft 31 kts 93°
2026-05-05 01:32 40.50033 -80.23574 1149 ft 30 kts 92°
2026-05-05 01:32 40.50025 -80.23303 1150 ft 29 kts 92°
2026-05-05 01:32 40.49981 -80.23076 1152 ft 24 kts 120°
2026-05-05 01:33 40.49902 -80.22891 1152 ft 23 kts 120°
2026-05-05 01:33 40.49827 -80.22712 1152 ft 22 kts 118°
2026-05-05 01:33 40.49757 -80.22543 1152 ft 21 kts 119°
2026-05-05 01:33 40.49685 -80.22377 1151 ft 20 kts 115°
2026-05-05 01:34 40.49676 -80.22223 1152 ft 10 kts 94°
2026-05-05 01:34 40.49675 -80.22218 1152 ft 0 kts 107°